UAE12W VECC-OMDB

Flight info

Callsign UAE12W
Flight time N/A
Altitude 34000
Route JJS2E JJS A791 BPL L639 RASKI L301 RAGMA N571 VUSET A454 PASOV B540 MIVEK P574 IMPED
Aircraft B77W/H-SDE1E2E3FGHIJ2J3J4J5M1RWXY/LB1D1

Departure

Time N/A
Airport Netaji Subhash Chandra Bose International Airport (VECC)

Arrival

Time 2026-05-06 19:54
Airport Dubai International Airport (OMDB)
Time Latitude Longitude Altitude Speed Heading
2026-05-06 18:47 23.12105 63.25595 33792 ft 458 kts 278°
2026-05-06 18:47 23.12453 63.22156 33792 ft 458 kts 278°
2026-05-06 18:48 23.13147 63.15273 33799 ft 458 kts 278°
2026-05-06 18:48 23.13837 63.08396 33791 ft 458 kts 278°
2026-05-06 18:49 23.14524 63.01514 33793 ft 458 kts 277°
2026-05-06 18:49 23.15208 62.94632 33803 ft 458 kts 277°
2026-05-06 18:50 23.15890 62.87748 33795 ft 458 kts 277°
2026-05-06 18:50 23.16567 62.80873 33786 ft 457 kts 277°
2026-05-06 18:51 23.17235 62.74064 33795 ft 456 kts 277°
2026-05-06 18:51 23.17904 62.67216 33793 ft 456 kts 277°
2026-05-06 18:52 23.18570 62.60369 33787 ft 455 kts 277°
2026-05-06 18:52 23.19232 62.53526 33790 ft 455 kts 277°
2026-05-06 18:53 23.19892 62.46684 33786 ft 455 kts 277°
2026-05-06 18:53 23.20549 62.39831 33792 ft 456 kts 277°
2026-05-06 18:54 23.21203 62.32981 33796 ft 456 kts 277°
2026-05-06 18:54 23.21856 62.26103 33793 ft 457 kts 277°
2026-05-06 18:55 23.22506 62.19229 33788 ft 457 kts 277°
2026-05-06 18:55 23.23153 62.12355 33791 ft 457 kts 277°
2026-05-06 18:56 23.23799 62.05466 33786 ft 457 kts 277°
2026-05-06 18:56 23.24437 61.98625 33789 ft 458 kts 277°
2026-05-06 18:57 23.25075 61.91740 33800 ft 457 kts 277°
2026-05-06 18:57 23.25710 61.84865 33790 ft 457 kts 277°
2026-05-06 18:58 23.26342 61.77991 33786 ft 456 kts 277°
2026-05-06 18:58 23.26970 61.71130 33791 ft 456 kts 277°
2026-05-06 18:59 23.27595 61.64259 33791 ft 456 kts 277°
2026-05-06 18:59 23.28216 61.57407 33787 ft 455 kts 277°
2026-05-06 19:00 23.28834 61.50544 33787 ft 455 kts 277°
2026-05-06 19:00 23.29450 61.43684 33797 ft 455 kts 277°
2026-05-06 19:01 23.30062 61.36826 33794 ft 456 kts 276°
2026-05-06 19:01 23.30671 61.29963 33783 ft 456 kts 276°
2026-05-06 19:02 23.31278 61.23098 33791 ft 456 kts 276°
2026-05-06 19:02 23.31902 61.16225 33787 ft 456 kts 277°
2026-05-06 19:03 23.32760 61.09378 33793 ft 456 kts 279°
2026-05-06 19:03 23.33665 61.02585 33785 ft 457 kts 279°
2026-05-06 19:04 23.34541 60.95738 33791 ft 456 kts 278°
2026-05-06 19:04 23.35395 60.88895 33790 ft 456 kts 278°
2026-05-06 19:05 23.36243 60.82056 33783 ft 455 kts 278°
2026-05-06 19:05 23.37089 60.75234 33787 ft 455 kts 278°
2026-05-06 19:06 23.37934 60.68417 33786 ft 454 kts 279°
2026-05-06 19:06 23.39407 60.61746 33782 ft 454 kts 289°
2026-05-06 19:07 23.41727 60.55354 33785 ft 454 kts 292°
2026-05-06 19:07 23.44098 60.48984 33785 ft 454 kts 291°
2026-05-06 19:08 23.46451 60.42596 33781 ft 455 kts 291°
2026-05-06 19:08 23.48789 60.36196 33781 ft 455 kts 291°
2026-05-06 19:09 23.51105 60.29835 33785 ft 455 kts 291°
2026-05-06 19:09 23.53434 60.23428 33780 ft 455 kts 291°
2026-05-06 19:10 23.55758 60.17027 33776 ft 454 kts 291°
2026-05-06 19:10 23.58079 60.10627 33776 ft 454 kts 291°
2026-05-06 19:11 23.60395 60.04229 33778 ft 454 kts 291°
2026-05-06 19:11 23.62712 59.97819 33775 ft 454 kts 291°
2026-05-06 19:12 23.65024 59.91415 33777 ft 454 kts 291°
2026-05-06 19:12 23.67335 59.85004 33785 ft 454 kts 291°
2026-05-06 19:13 23.69641 59.78595 33771 ft 454 kts 291°
2026-05-06 19:13 23.71931 59.72224 33768 ft 454 kts 291°
2026-05-06 19:14 23.74231 59.65814 33776 ft 453 kts 291°
2026-05-06 19:14 23.76526 59.59407 33767 ft 453 kts 290°
2026-05-06 19:15 23.78820 59.52995 33779 ft 453 kts 290°
2026-05-06 19:15 23.81111 59.46582 33765 ft 453 kts 290°
2026-05-06 19:16 23.83399 59.40165 33775 ft 453 kts 290°
2026-05-06 19:16 23.85684 59.33749 33767 ft 453 kts 290°
2026-05-06 19:17 23.87963 59.27339 33770 ft 452 kts 290°
2026-05-06 19:17 23.90239 59.20929 33767 ft 452 kts 290°
2026-05-06 19:18 23.92511 59.14520 33763 ft 452 kts 290°
2026-05-06 19:18 23.94675 59.08069 33768 ft 452 kts 288°
2026-05-06 19:19 23.96730 59.01578 33755 ft 452 kts 288°
2026-05-06 19:19 23.98792 58.95085 33772 ft 452 kts 288°
2026-05-06 19:20 24.00868 58.88593 33783 ft 452 kts 288°
2026-05-06 19:20 24.02934 58.82144 33766 ft 452 kts 288°
2026-05-06 19:21 24.05008 58.75656 33762 ft 451 kts 288°
2026-05-06 19:21 24.07076 58.69175 33768 ft 451 kts 288°
2026-05-06 19:22 24.09140 58.62695 33771 ft 451 kts 288°
2026-05-06 19:22 24.11200 58.56214 33770 ft 451 kts 288°
2026-05-06 19:23 24.13253 58.49733 33766 ft 451 kts 288°
2026-05-06 19:23 24.15303 58.43248 33769 ft 451 kts 288°
2026-05-06 19:24 24.17349 58.36760 33778 ft 451 kts 288°
2026-05-06 19:24 24.19395 58.30268 33772 ft 451 kts 288°
2026-05-06 19:25 24.21437 58.23776 33776 ft 451 kts 288°
2026-05-06 19:25 24.23475 58.17286 33769 ft 450 kts 288°
2026-05-06 19:26 24.25509 58.10796 33780 ft 450 kts 288°
2026-05-06 19:26 24.27539 58.04312 33779 ft 450 kts 288°
2026-05-06 19:27 24.29566 57.97821 33781 ft 450 kts 288°
2026-05-06 19:27 24.31592 57.91328 33785 ft 450 kts 288°
2026-05-06 19:28 24.33605 57.84863 33790 ft 450 kts 288°
2026-05-06 19:28 24.35623 57.78369 33790 ft 450 kts 288°
2026-05-06 19:29 24.37638 57.71878 33788 ft 449 kts 288°
2026-05-06 19:29 24.39649 57.65386 33786 ft 449 kts 288°
2026-05-06 19:30 24.41656 57.58897 33788 ft 449 kts 288°
2026-05-06 19:30 24.43658 57.52414 33788 ft 449 kts 288°
2026-05-06 19:31 24.45647 57.45970 33791 ft 449 kts 288°
2026-05-06 19:31 24.48648 57.36242 33795 ft 449 kts 287°
2026-05-06 19:32 24.49651 57.32983 33423 ft 454 kts 287°
2026-05-06 19:32 24.50664 57.29687 32808 ft 455 kts 287°
2026-05-06 19:32 24.51671 57.26410 32199 ft 451 kts 287°
2026-05-06 19:32 24.52670 57.23158 31606 ft 448 kts 287°
2026-05-06 19:33 24.53661 57.19929 31022 ft 444 kts 287°
2026-05-06 19:33 24.54312 57.17805 30639 ft 442 kts 287°
2026-05-06 19:33 24.55620 57.13534 29841 ft 439 kts 287°
2026-05-06 19:33 24.56584 57.10383 29164 ft 437 kts 287°
2026-05-06 19:34 24.57222 57.08294 28760 ft 435 kts 287°
2026-05-06 19:34 24.58182 57.05151 28170 ft 431 kts 287°
2026-05-06 19:34 24.59131 57.02042 27603 ft 428 kts 287°
2026-05-06 19:34 24.60378 56.97954 26865 ft 424 kts 287°
2026-05-06 19:35 24.61007 56.95886 26503 ft 422 kts 288°
2026-05-06 19:35 24.61935 56.92840 25966 ft 419 kts 288°
2026-05-06 19:35 24.62856 56.89813 25434 ft 416 kts 288°
2026-05-06 19:35 24.63778 56.86805 24901 ft 415 kts 289°
2026-05-06 19:36 24.64876 56.83880 24364 ft 413 kts 294°
2026-05-06 19:36 24.66242 56.81105 23859 ft 412 kts 300°
2026-05-06 19:36 24.67738 56.78421 23347 ft 411 kts 301°
2026-05-06 19:36 24.69229 56.75753 22753 ft 409 kts 301°
2026-05-06 19:37 24.70709 56.73096 22238 ft 406 kts 301°
2026-05-06 19:37 24.72173 56.70454 21727 ft 403 kts 301°
2026-05-06 19:37 24.73624 56.67825 21233 ft 400 kts 301°
2026-05-06 19:37 24.75060 56.65215 20733 ft 398 kts 301°
2026-05-06 19:38 24.76488 56.62614 20269 ft 396 kts 301°
2026-05-06 19:38 24.77886 56.60065 19785 ft 394 kts 301°
2026-05-06 19:38 24.79300 56.57488 19299 ft 393 kts 302°
2026-05-06 19:38 24.80707 56.54919 18805 ft 391 kts 302°
2026-05-06 19:39 24.82111 56.52356 18310 ft 391 kts 302°
2026-05-06 19:39 24.83514 56.49795 17773 ft 390 kts 302°
2026-05-06 19:39 24.84913 56.47238 17252 ft 389 kts 302°
2026-05-06 19:39 24.86306 56.44692 16736 ft 387 kts 302°
2026-05-06 19:40 24.87568 56.42107 16251 ft 383 kts 293°
2026-05-06 19:40 24.88292 56.39281 15768 ft 384 kts 281°
2026-05-06 19:40 24.88480 56.36357 15275 ft 384 kts 268°
2026-05-06 19:40 24.88283 56.33430 14792 ft 383 kts 266°
2026-05-06 19:41 24.88086 56.30501 14285 ft 384 kts 267°
2026-05-06 19:41 24.88009 56.27577 13766 ft 381 kts 275°
2026-05-06 19:41 24.88476 56.24723 13316 ft 378 kts 288°
2026-05-06 19:41 24.89426 56.22046 12846 ft 374 kts 299°
2026-05-06 19:42 24.90699 56.19608 12747 ft 361 kts 302°
2026-05-06 19:42 24.91936 56.17256 12663 ft 349 kts 301°
2026-05-06 19:42 24.93126 56.14965 12534 ft 340 kts 301°
2026-05-06 19:42 24.94276 56.12727 12369 ft 332 kts 301°
2026-05-06 19:43 24.95394 56.10539 12245 ft 324 kts 301°
2026-05-06 19:43 24.96484 56.08404 12120 ft 316 kts 301°
2026-05-06 19:43 24.97585 56.06353 11967 ft 305 kts 308°
2026-05-06 19:43 24.98928 56.04599 11859 ft 295 kts 315°
2026-05-06 19:44 25.00312 56.03013 11687 ft 288 kts 315°
2026-05-06 19:44 25.01698 56.01418 11508 ft 281 kts 314°
2026-05-06 19:44 25.03026 55.99846 11233 ft 279 kts 314°
2026-05-06 19:44 25.04339 55.98268 10916 ft 279 kts 313°
2026-05-06 19:45 25.05642 55.96692 10609 ft 278 kts 313°
2026-05-06 19:45 25.06937 55.95116 10315 ft 276 kts 312°
2026-05-06 19:45 25.08214 55.93545 10039 ft 271 kts 309°
2026-05-06 19:45 25.09112 55.91748 9559 ft 268 kts 284°
2026-05-06 19:46 25.09311 55.89729 9000 ft 265 kts 271°
2026-05-06 19:46 25.09373 55.87690 8406 ft 266 kts 271°
2026-05-06 19:46 25.09437 55.85664 7896 ft 263 kts 271°
2026-05-06 19:46 25.09502 55.83676 7386 ft 262 kts 271°
2026-05-06 19:47 25.09569 55.81656 6977 ft 264 kts 271°
2026-05-06 19:47 25.09638 55.79646 6771 ft 260 kts 271°
2026-05-06 19:47 25.09707 55.77662 6489 ft 259 kts 272°
2026-05-06 19:47 25.09777 55.75675 6182 ft 259 kts 272°
2026-05-06 19:48 25.09848 55.73693 5893 ft 259 kts 271°
2026-05-06 19:48 25.09919 55.71711 5578 ft 259 kts 271°
2026-05-06 19:48 25.09989 55.69728 5285 ft 258 kts 271°
2026-05-06 19:48 25.10060 55.67753 4999 ft 258 kts 271°
2026-05-06 19:49 25.10130 55.65781 4705 ft 257 kts 271°
2026-05-06 19:49 25.10317 55.63844 4348 ft 253 kts 287°
2026-05-06 19:49 25.11083 55.62109 4058 ft 251 kts 301°
2026-05-06 19:49 25.11985 55.60464 3745 ft 250 kts 301°
2026-05-06 19:50 25.12887 55.58827 3451 ft 250 kts 300°
2026-05-06 19:50 25.13794 55.57192 3156 ft 249 kts 301°
2026-05-06 19:50 25.14695 55.55567 2908 ft 246 kts 300°
2026-05-06 19:50 25.15579 55.53974 2697 ft 240 kts 300°
2026-05-06 19:51 25.16438 55.52424 2523 ft 230 kts 301°
2026-05-06 19:51 25.17242 55.50970 2274 ft 214 kts 301°
2026-05-06 19:51 25.17991 55.49619 2012 ft 199 kts 301°
2026-05-06 19:51 25.18687 55.48360 1749 ft 185 kts 301°
2026-05-06 19:52 25.19328 55.47203 1529 ft 167 kts 301°
2026-05-06 19:52 25.19899 55.46173 1337 ft 152 kts 302°
2026-05-06 19:52 25.20452 55.45174 1166 ft 152 kts 301°
2026-05-06 19:52 25.20998 55.44185 970 ft 151 kts 301°
2026-05-06 19:53 25.21535 55.43193 765 ft 150 kts 301°
2026-05-06 19:53 25.22076 55.42217 573 ft 148 kts 301°
2026-05-06 19:53 25.22618 55.41241 397 ft 149 kts 301°
2026-05-06 19:53 25.23160 55.40262 233 ft 151 kts 300°
2026-05-06 19:54 25.23711 55.39273 41 ft 151 kts 301°
2026-05-06 19:54 25.24210 55.38370 31 ft 119 kts 302°
2026-05-06 19:54 25.24561 55.37738 27 ft 75 kts 301°
2026-05-06 19:54 25.24721 55.37441 27 ft 32 kts 299°
2026-05-06 19:55 25.24782 55.37218 29 ft 30 kts 276°
2026-05-06 19:55 25.24786 55.37120 28 ft 7 kts 270°
2026-05-06 19:55 25.24787 55.37060 27 ft 9 kts 271°
2026-05-06 19:55 25.24792 55.36985 27 ft 10 kts 282°
2026-05-06 19:56 25.24815 55.36907 27 ft 11 kts 267°
2026-05-06 19:56 25.24758 55.36849 26 ft 12 kts 212°
2026-05-06 19:56 25.24686 55.36799 30 ft 13 kts 212°
2026-05-06 19:56 25.24609 55.36748 29 ft 13 kts 211°
2026-05-06 19:57 25.24532 55.36695 29 ft 13 kts 211°
2026-05-06 19:57 25.24465 55.36628 29 ft 13 kts 238°
2026-05-06 19:57 25.24447 55.36527 26 ft 17 kts 278°
2026-05-06 19:57 25.24514 55.36387 30 ft 22 kts 302°
2026-05-06 19:58 25.24595 55.36243 29 ft 22 kts 302°
2026-05-06 19:58 25.24677 55.36097 28 ft 22 kts 302°
2026-05-06 19:58 25.24759 55.35951 29 ft 23 kts 302°
2026-05-06 19:58 25.24843 55.35803 30 ft 23 kts 302°
2026-05-06 19:59 25.24933 55.35660 30 ft 23 kts 306°
2026-05-06 19:59 25.25019 55.35516 29 ft 23 kts 302°
2026-05-06 19:59 25.25098 55.35374 29 ft 17 kts 301°
2026-05-06 19:59 25.25134 55.35308 29 ft 9 kts 301°
2026-05-06 20:00 25.25186 55.35304 32 ft 7 kts 25°
2026-05-06 20:00 25.25216 55.35323 30 ft 2 kts 31°
2026-05-06 20:00 25.25217 55.35324 30 ft 0 kts 31°